Dallas, TX

4:55 PM CDT on September 30, 2016 (GMT -0500)
Dallas Love

Weather History for KDAL - December, 2012

Change the Weather History Date:

Thursday, December 13, 2012

  Actual Average Record
Temperature  
Mean Temperature 52 °F -  
Max Temperature 64 °F 56 °F 73 °F (1996)
Min Temperature 39 °F 37 °F 26 °F (1997)
Degree Days  
Heating Degree Days 14    
Growing Degree Days 2 (Base 50)    
Moisture  
Dew Point 22 °F    
Average Humidity 33    
Maximum Humidity 45    
Minimum Humidity 22    
Precipitation  
Precipitation 0.00 in - - ()
Sea Level Pressure  
Sea Level Pressure 30.24 in    
Wind  
Wind Speed 12 mph (SSE)    
Max Wind Speed 15 mph    
Max Gust Speed 22 mph    
Visibility 10 miles    
Events      
Averages and records for this station are not official NWS values.
T = Trace of Precipitation, MM = Missing Value Source: NWS Daily Summary

Daily Weather History Graph

Daily Weather History Graph

Search for Another Location

Airport or City:

Trip Planner

Search our weather history database for the weather conditions in past years. The results will help you decide how hot, cold, wet, or windy it might be!

Date:

Astronomy

Dec. 13, 2012 Rise Set
Actual Time 7:21 AM CST 5:22 PM CST
Civil Twilight 6:54 AM CST 5:49 PM CST
Nautical Twilight 6:23 AM CST 6:20 PM CST
Astronomical Twilight 5:53 AM CST 6:50 PM CST
Moon 7:32 AM CST (12/13) 6:04 PM CST (12/13)
Length of Visible Light 10h 55m
Length of Day
10h 00m
New Moon, 0% of the Moon is Illuminated
Dec 13
New Moon
Dec 19
First Quarter
Dec 28
Full
Jan 4
Last Quarter
Jan 11
New

Hourly Weather History & Observations

Time (CST) Temp. Windchill Dew Point Humidity Pressure Visibility Wind Dir Wind Speed Gust Speed Precip Events Conditions
12:53 AM 46.0 °F 39.9 °F 21.0 °F 37% 30.27 in 10.0 mi SSE 13.8 mph - N/A   Clear
1:53 AM 45.0 °F 39.7 °F 19.9 °F 37% 30.26 in 10.0 mi SSE 10.4 mph - N/A   Clear
2:53 AM 44.1 °F 39.0 °F 19.0 °F 37% 30.27 in 10.0 mi SSE 9.2 mph - N/A   Clear
3:53 AM 43.0 °F 36.0 °F 19.0 °F 38% 30.27 in 10.0 mi SSE 13.8 mph - N/A   Clear
4:53 AM 42.1 °F 35.7 °F 19.0 °F 40% 30.26 in 10.0 mi SSE 11.5 mph - N/A   Clear
5:53 AM 39.9 °F 33.9 °F 19.9 °F 45% 30.28 in 10.0 mi SSE 9.2 mph - N/A   Clear
6:53 AM 41.0 °F 34.3 °F 19.0 °F 41% 30.28 in 10.0 mi SSE 11.5 mph - N/A   Clear
7:53 AM 39.9 °F 33.4 °F 19.9 °F 45% 30.30 in 10.0 mi SSE 10.4 mph - N/A   Clear
8:53 AM 43.0 °F 37.7 °F 21.0 °F 42% 30.31 in 10.0 mi SSE 9.2 mph - N/A   Clear
9:53 AM 48.0 °F - 21.9 °F 36% 30.32 in 10.0 mi SSE 9.2 mph - N/A   Clear
10:53 AM 54.0 °F - 23.0 °F 30% 30.30 in 10.0 mi South 11.5 mph - N/A   Clear
11:53 AM 59.0 °F - 23.0 °F 25% 30.29 in 10.0 mi South 12.7 mph - N/A   Clear
12:53 PM 62.1 °F - 23.0 °F 22% 30.25 in 10.0 mi SSE 13.8 mph - N/A   Clear
1:53 PM 63.0 °F - 24.1 °F 23% 30.20 in 10.0 mi South 11.5 mph 18.4 mph N/A   Clear
2:53 PM 64.9 °F - 25.0 °F 22% 30.18 in 10.0 mi South 13.8 mph 21.9 mph N/A   Clear
3:53 PM 64.9 °F - 26.1 °F 23% 30.16 in 10.0 mi South 15.0 mph - N/A   Clear
6:53 PM 57.0 °F - 24.1 °F 28% 30.18 in 10.0 mi SE 12.7 mph - N/A   Scattered Clouds
7:53 PM 55.9 °F - 24.1 °F 29% 30.18 in 10.0 mi SE 13.8 mph - N/A   Scattered Clouds
8:53 PM 55.0 °F - 23.0 °F 29% 30.19 in 10.0 mi SE 13.8 mph - N/A   Scattered Clouds
9:53 PM 54.0 °F - 24.1 °F 31% 30.18 in 10.0 mi SE 12.7 mph - N/A   Mostly Cloudy
10:53 PM 52.0 °F - 26.1 °F 37% 30.19 in 10.0 mi SE 9.2 mph - N/A   Mostly Cloudy
11:53 PM 53.1 °F - 26.1 °F 35% 30.19 in 10.0 mi SSE 13.8 mph - N/A   Mostly Cloudy